Weather History for KCRG - April, 2014

Change the Weather History Date:

Wednesday, April 23, 2014

  Actual Average Record
Temperature  
Mean Temperature 75 °F -  
Max Temperature 87 °F 77 °F 88 °F (1999)
Min Temperature 64 °F 57 °F 50 °F (2007)
Cooling Degree Days 10    
Growing Degree Days 25 (Base 50)    
Moisture  
Dew Point 61 °F    
Average Humidity 66    
Maximum Humidity 87    
Minimum Humidity 41    
Precipitation  
Precipitation 0.00 in - - ()
Sea Level Pressure  
Sea Level Pressure 29.89 in    
Wind  
Wind Speed 6 mph (West)    
Max Wind Speed 12 mph    
Max Gust Speed 17 mph    
Visibility 10 miles    
Events      
Averages and records for this station are not official NWS values.
T = Trace of Precipitation, MM = Missing Value Source: NWS Daily Summary

Daily Weather History Graph

Daily Weather History Graph

Search for Another Location

Airport or City:

Trip Planner

Search our weather history database for the weather conditions in past years. The results will help you decide how hot, cold, wet, or windy it might be!

Date:

Astronomy

Apr. 23, 2014 Rise Set
Actual Time 6:50 AM EDT 7:58 PM EDT
Civil Twilight 6:25 AM EDT 8:23 PM EDT
Nautical Twilight 5:55 AM EDT 8:53 PM EDT
Astronomical Twilight 5:25 AM EDT 9:24 PM EDT
Moon 2:55 AM EDT (4/23) 2:29 PM EDT (4/23)
Length of Visible Light 13h 58m
Length of Day
13h 08m
Waning Crescent, 35% of the Moon is Illuminated
Apr 23
Waning Crescent
Apr 29
New
May 6
First Quarter
May 14
Full
May 21
Last Quarter

Hourly Weather History & Observations

Time (EDT) Temp. Heat Index Dew Point Humidity Pressure Visibility Wind Dir Wind Speed Gust Speed Precip Events Conditions
12:53 AM 71.1 °F - 59.0 °F 66% 29.88 in 10.0 mi West 8.1 mph - N/A   Clear
1:53 AM 69.1 °F - 60.1 °F 73% 29.88 in 10.0 mi West 5.8 mph - N/A   Clear
2:53 AM 68.0 °F - 60.1 °F 76% 29.87 in 10.0 mi West 3.5 mph - N/A   Clear
3:53 AM 66.9 °F - 60.1 °F 79% 29.86 in 10.0 mi West 4.6 mph - N/A   Clear
4:53 AM 66.0 °F - 61.0 °F 84% 29.87 in 10.0 mi West 4.6 mph - N/A   Clear
5:53 AM 64.9 °F - 61.0 °F 87% 29.87 in 10.0 mi WSW 3.5 mph - N/A   Clear
6:53 AM 64.0 °F - 60.1 °F 87% 29.88 in 10.0 mi Calm Calm - N/A   Clear
7:53 AM 66.0 °F - 61.0 °F 84% 29.91 in 10.0 mi Calm Calm - N/A   Clear
8:53 AM 70.0 °F - 62.1 °F 76% 29.91 in 10.0 mi West 5.8 mph - N/A   Clear
9:53 AM 75.0 °F - 61.0 °F 62% 29.92 in 10.0 mi WNW 6.9 mph - N/A   Clear
10:53 AM 77.0 °F - 61.0 °F 58% 29.93 in 10.0 mi NNW 11.5 mph - N/A   Clear
11:53 AM 81.0 °F 82.2 °F 63.0 °F 54% 29.93 in 10.0 mi NNW 9.2 mph - N/A   Clear
12:53 PM 82.9 °F 84.0 °F 63.0 °F 51% 29.91 in 10.0 mi NW 10.4 mph - N/A   Partly Cloudy
1:53 PM 82.9 °F 83.2 °F 60.1 °F 46% 29.90 in 10.0 mi West 10.4 mph 17.3 mph N/A   Partly Cloudy
2:53 PM 82.9 °F 82.8 °F 59.0 °F 44% 29.88 in 10.0 mi WNW 6.9 mph - N/A   Scattered Clouds
3:53 PM 84.9 °F 84.4 °F 59.0 °F 41% 29.86 in 10.0 mi NW 8.1 mph - N/A   Partly Cloudy
4:53 PM 86.0 °F 85.7 °F 60.1 °F 41% 29.85 in 10.0 mi NNW 10.4 mph - N/A   Partly Cloudy
5:53 PM 80.1 °F 81.5 °F 63.0 °F 56% 29.85 in 10.0 mi East 8.1 mph - N/A   Mostly Cloudy
6:53 PM 78.1 °F - 63.0 °F 60% 29.86 in 10.0 mi ESE 6.9 mph - N/A   Scattered Clouds
7:53 PM 75.9 °F - 64.0 °F 67% 29.87 in 10.0 mi SE 3.5 mph - N/A   Clear
8:53 PM 73.0 °F - 63.0 °F 71% 29.90 in 10.0 mi SSE 3.5 mph - N/A   Partly Cloudy
9:53 PM 73.0 °F - 62.1 °F 68% 29.92 in 10.0 mi South 4.6 mph - N/A   Clear
10:53 PM 71.1 °F - 62.1 °F 73% 29.93 in 10.0 mi South 4.6 mph - N/A   Clear
11:53 PM 70.0 °F - 62.1 °F 76% 29.93 in 10.0 mi Calm Calm - N/A   Clear